Regional Weather Roundup
Issued by NWS

Home | Current Version | Previous Version | Text Only | Print | Product List | Glossary Off
Versions: 1 2 3 4 5 6 7 8 9 10 11 12 13 14 15 16 17 18 19 20 21 22 23 24 25 26 27 28 29 30 31 32 33 34 35 36 37 38 39 40 41 42 43 44 45 46 47 48 49 50

000
ASUS43 KMPX 171501
RWRMN
WEATHER ROUNDUP FOR MINNESOTA
NATIONAL WEATHER SERVICE TWIN CITIES/CHANHASSEN MN
1000 AM CDT THU APR 17 2014


NOTE: "FAIR" INDICATES FEW OR NO CLOUDS BELOW 12,000 FEET WITH NO
SIGNIFICANT WEATHER AND/OR OBSTRUCTIONS TO VISIBILITY. N/A MEANS
CURRENT SKY AND/OR WEATHER CONDITIONS ARE NOT AVAILABLE.

MNZ060>063-068>070-171600-
   Twin Cities Metro

CITY           SKY/WX    TMP DP  RH WIND       PRES   REMARKS
TWIN CITIES    CLOUDY    30  27  88 NW13      30.22R WCI  20
ST PAUL        CLOUDY    31  27  85 NW12      30.23R WCI  22
CRYSTAL        CLOUDY    31  25  78 NW14      30.22R WCI  21
EDEN PRAIRIE   CLOUDY    32  27  81 NW12      30.22R WCI  23
LAKEVILLE      CLOUDY    28  27  93 NW10      30.22R WCI  19
SOUTH ST PAUL  CLOUDY    34  31  88 NW13G21   30.22R WCI  25
LAKE ELMO      CLOUDY    32  30  93 NW9       30.21R WCI  24
$$
MNZ001>005-007-008-013>017-022>024-027-028-171600-
   Northwest Minnesota

CITY           SKY/WX    TMP DP  RH WIND       PRES   REMARKS
BEMIDJI        SUNNY     32  10  40 N9        30.27F WCI  24
HALLOCK        CLOUDY    30  10  43 CALM      30.37F
ROSEAU         SUNNY     30  10  43 NE3       30.35S
WARROAD        SUNNY     27   7  43 NE8       30.36S WCI  18
THIEF RVR FALL SUNNY     30   7  37 N6        30.35S WCI  24
CROOKSTON      SUNNY     30  16  55 N7        30.36S WCI  23
FOSSTON        SUNNY     30  14  51 CALM      30.32S
DETROIT LAKES  SUNNY     34  14  44 NE9       30.30S WCI  26
MOORHEAD       SUNNY     30  21  69 VRB6      30.35S WCI  24
PARK RAPIDS    SUNNY     31  15  52 N13       30.26S WCI  21
$$
MNZ006-009>011-018-025>026-171600-
   North Central Minnesota

CITY           SKY/WX    TMP DP  RH WIND       PRES   REMARKS
BAUDETTE       SUNNY     32   9  38 N5        30.32F WCI  27
FLAG ISLAND    SUNNY     25  12  58 NW5       30.35S WCI  19
INTL FALLS     CLOUDY    27  14  58 N7        30.29S WCI  19
WASKISH        SUNNY     34  18  51 N8        30.29F WCI  27
BIG FORK       SUNNY     32  18  55 N7        30.25S WCI  26
LONGVILLE      MOSUNNY   30  19  64 NW7       30.24S WCI  23
GRAND RAPIDS   MOSUNNY   28  18  64 N9        30.22S WCI  20
CRANE LAKE     LGT SNOW  27  23  86 N5        30.28F WCI  21
ORR            CLOUDY    28  19  69 N5        30.22S WCI  23
COOK           FLURRIES  28  21  74 NE10      30.23S WCI  19
$$
MNZ012-019>021-037-171600-
   Northeast Minnesota

CITY           SKY/WX    TMP DP  RH WIND       PRES   REMARKS
DULUTH         CLOUDY    27  21  78 N13       30.16R WCI  16
ELY            PTSUNNY   27  21  80 N7        30.20S HAZE    WCI  19
HIBBING        CLOUDY    29  21  72 N12       30.21S WCI  19
EVELETH        CLOUDY    30  23  74 N6        30.21R WCI  24
DULUTH HARBOR  CLOUDY    30  27  86 N13       30.20R WCI  20
TWO HARBORS    FLURRIES  28  21  74 N8        30.15R WCI  20
SILVER BAY     LGT SNOW  28  27  93 N5        30.15S WCI  23
GRAND MARAIS     N/A     32  29  88 NE16G28   30.18F WCI  21
G MARAIS ARPRT LGT SNOW  27  23  86 NE17G25   30.14R VSB 1   WCI  14
$$
MNZ029>031-032-039>041-046>048-054>057-064-171600-
   West Central Minnesota

CITY           SKY/WX    TMP DP  RH WIND       PRES   REMARKS
FERGUS FALLS   SUNNY     34  16  47 N6        30.31R WCI  29
WHEATON        SUNNY     34  25  69 NW9       30.35S WCI  26
MORRIS         SUNNY     30  19  64 N13       30.30S WCI  20
ALEXANDRIA     SUNNY     29  19  66 N12       30.28R WCI  19
ELBOW LAKE     FAIR      30  19  62 N9        30.31R WCI  22
WADENA         SUNNY     28  19  69 N10       30.27S WCI  19
GLENWOOD       SUNNY     28  19  69 N8        30.28R WCI  20
APPLETON       SUNNY     30  21  69 NW10      30.32S WCI  21
BENSON         SUNNY     28  19  69 N8        30.30S WCI  20
ORTONVILLE     SUNNY     27  18  69 N10       30.32F WCI  17
MADISON        SUNNY     28  23  80 N10       30.31F WCI  19
WILLMAR        FAIR      28  19  69 N12       30.28S WCI  18
$$
MNZ033>034-036-042>043-049>051-058-059-171600-
   Central Minnesota

CITY           SKY/WX    TMP DP  RH WIND       PRES   REMARKS
ST CLOUD       SUNNY     31  22  69 N8        30.24R WCI  23
SAUK CENTRE    FAIR      28  19  68 N9        30.27S WCI  19
PAYNESVILLE    SUNNY     28  20  74 NW10      30.27R WCI  18
AITKIN         SUNNY     34  21  60 N8        30.21S WCI  27
PINE RIVER     PTSUNNY   30  19  64 NW8       30.28R WCI  23
BRAINERD       SUNNY     34  21  59 N14       30.24R WCI  25
STAPLES        SUNNY     28  19  69 NW9       30.27R WCI  20
LONG PRAIRIE   FAIR      27  19  74 NW9       30.27R WCI  17
LITTLE FALLS   SUNNY     32  21  64 NW8       30.25R WCI  25
LITCHFIELD     SUNNY     28  23  80 N12       30.27R WCI  18
BUFFALO        CLOUDY    31  24  76 NW10      30.25R WCI  22
MAPLE LAKE     CLOUDY    31  25  79 N15       30.26R WCI  20
$$
MNZ037-044-045-052-053-171600-
   East Central Minnesota

CITY           SKY/WX    TMP DP  RH WIND       PRES   REMARKS
PRINCETON      CLOUDY    32  25  74 NW9       30.23R WCI  24
MORA           CLOUDY    32  23  69 N9        30.23R WCI  24
CAMBRIDGE      CLOUDY    34  23  64 NW13      30.20R WCI  25
RUSH CITY      CLOUDY    30  25  82 N9G17     30.21R WCI  22
MOOSE LAKE     CLOUDY    30  23  74 N12       30.18S WCI  21
HINCKLEY       CLOUDY    32  27  80 N10G16    30.20R WCI  24
CLOQUET        CLOUDY    27  23  86 N12G18    30.18S WCI  16
MCGREGOR       CLOUDY    30  23  74 N9        30.22R WCI  22
$$
MNZ071>073-080-081-089-090-097-098-171600-
   Southwest Minnesota

CITY           SKY/WX    TMP DP  RH WIND       PRES   REMARKS
MONTEVIDEO     SUNNY     32  25  74 N9        30.33R WCI  24
GRANITE FALLS  SUNNY     27  20  76 W9        30.33R WCI  18
CANBY          SUNNY     28  21  73 NW8       30.33S WCI  20
MARSHALL       SUNNY     27  18  69 N15       30.30S WCI  15
REDWOOD FALLS  SUNNY     28  20  71 NW13      30.29R WCI  17
OLIVIA         SUNNY     27  21  80 NW9       30.28R WCI  17
PIPESTONE      SUNNY     28  21  74 NE8       30.28S WCI  20
WINDOM         MOSUNNY   27  23  86 NW13      30.29R WCI  16
WORTHINGTON    MOSUNNY   27  19  74 N14       30.30R WCI  15
JACKSON        CLOUDY    28  23  80 NW13      30.28R WCI  18
TRACY          SUNNY     27  22  80 NW13      30.30R WCI  16
SLAYTON        SUNNY     26  22  84 N13       30.29R WCI  15
$$
MNZ065>067-074>077-082>085-091>093-171600-
   South Central Minnesota

CITY           SKY/WX    TMP DP  RH WIND       PRES   REMARKS
MANKATO        CLOUDY    30  25  80 NW14      30.26R WCI  20
NEW ULM        SUNNY     27  25  93 N12G17    30.27R WCI  16
ST JAMES       CLOUDY    28  25  86 NW10      30.29R WCI  19
FAIRMONT       CLOUDY    27  21  80 NW13      30.30R WCI  16
GLENCOE        CLOUDY    31  24  75 NW13      30.24R WCI  21
FARIBAULT      CLOUDY    34  27  75 NW8       30.23R WCI  27
OWATONNA       CLOUDY    30  27  86 NW9       30.23R WCI  22
WASECA         CLOUDY    34  32  93 NW12      30.25R WCI  25
ALBERT LEA     CLOUDY    30  28  93 NW8       30.23R WCI  23
$$
MNZ078>079-086>088-094>096-171600-
   Southeast Minnesota

CITY           SKY/WX    TMP DP  RH WIND       PRES   REMARKS
ROCHESTER      CLOUDY    32  29  88 NW18      30.18R FOG     WCI  20
RED WING       CLOUDY    34  30  86 NW12G17   30.20R WCI  25
STANTON        CLOUDY    32  28  86 NW13      30.20R WCI  23
DODGE CENTER   CLOUDY    34  32  93 NW14      30.19R WCI  24
WINONA         CLOUDY    36  32  87 W10       30.18R
AUSTIN         CLOUDY    30  28  93 NW13      30.21R WCI  20
PRESTON        CLOUDY    34  32  94 NW14      30.18R FOG     WCI  24
$$
ABBREVIATIONS USED IN REMARKS
   TC - TEMPERATURES IN CELSIUS
  WCI - WIND CHILL INDEX
   HX - HEAT INDEX
  VSB - VISIBILITY
$$



USA.gov is the U.S. government's official web portal to all federal, state and local government web resources and services.